PE1NIB-13 Weather Reports


Display with metric or nautical units.
time (UTC)temp
F
wind
direction
speed
MPH
gust
MPH
rain 1hr
in
rain 24hr
in
rain mn
in
humidity
%
barometer
mb
20260506213603 50 273 0.0 1.0 0.00 0.04 0.04 77 1012.0
20260506212703 50 0 0.0 0.0 0.00 0.04 0.04 78 1011.9
20260506211803 50 0 0.0 0.0 0.00 0.04 0.04 76 1011.8
20260506210904 50 0 0.0 0.0 0.00 0.04 0.04 77 1011.8
20260506210004 50 0 0.0 0.0 0.00 0.04 0.04 77 1011.8
20260506205403 50 0 0.0 0.0 0.00 0.04 0.04 75 1011.6
20260506204503 50 273 0.0 1.0 0.00 0.04 0.04 74 1011.5
20260506203603 51 273 0.0 1.0 0.00 0.04 0.04 73 1011.8
20260506202917 51 273 0.0 1.0 0.00 0.04 0.04 71 1011.7
20260506202019 51 273 0.0 1.0 0.00 0.04 0.04 71 1011.7
20260506200904 51 269 0.0 1.0 0.00 0.04 0.04 70 1011.6
20260506200003 51 257 0.0 1.0 0.00 0.04 0.04 69 1011.5
20260506195403 51 257 0.0 2.0 0.00 0.04 0.04 70 1011.6
20260506194504 51 251 0.0 1.0 0.00 0.04 0.04 70 1011.5
20260506193820 51 251 0.0 1.0 0.00 0.04 0.04 69 1011.3
20260506192917 51 250 0.0 1.0 0.00 0.04 0.04 69 1011.3
20260506192020 52 259 0.0 1.0 0.00 0.04 0.04 68 1011.1
20260506191117 52 296 0.0 1.0 0.00 0.04 0.04 69 1010.8
20260506190005 52 331 0.0 1.0 0.00 0.04 0.04 69 1010.9
20260506185403 52 308 0.0 2.0 0.00 0.04 0.04 69 1010.8
20260506184503 52 296 1.0 2.0 0.00 0.04 0.04 69 1010.5
20260506183604 52 299 0.0 2.0 0.00 0.04 0.04 68 1010.6
20260506182703 52 301 1.0 2.0 0.00 0.04 0.04 67 1010.5
20260506181803 52 312 1.0 1.0 0.00 0.04 0.04 67 1010.3
20260506180903 53 311 1.0 3.0 0.00 0.04 0.04 65 1010.4
20260506180004 53 289 1.0 3.0 0.00 0.04 0.04 65 1010.2
20260506175403 53 299 1.0 2.0 0.00 0.04 0.04 66 1010.0
20260506174503 53 289 1.0 4.0 0.00 0.04 0.04 65 1009.9
20260506173821 53 301 1.0 6.0 0.00 0.04 0.04 65 1009.9
20260506172703 53 285 1.0 2.0 0.00 0.04 0.04 66 1009.8
20260506172021 53 283 2.0 4.0 0.00 0.04 0.04 66 1009.8
20260506171118 53 275 2.0 6.0 0.00 0.04 0.04 66 1009.6
20260506170004 53 278 1.0 3.0 0.00 0.04 0.04 68 1009.5
20260506165617 53 209 1.0 4.0 0.00 0.04 0.04 68 1009.5
20260506164503 52 239 1.0 2.0 0.00 0.04 0.04 70 1009.8
20260506163608 52 164 1.0 3.0 0.00 0.04 0.04 70 1009.6
20260506162703 52 178 2.0 6.0 0.00 0.04 0.04 70 1009.8
20260506162017 52 157 2.0 8.0 0.00 0.04 0.04 70 1009.5
20260506161119 52 132 1.0 3.0 0.00 0.04 0.04 73 1009.5
20260506160221 52 132 1.0 6.0 0.00 0.04 0.04 72 1009.6
20260506155618 52 152 1.0 3.0 0.00 0.04 0.04 73 1009.6
20260506154720 52 227 2.0 4.0 0.00 0.04 0.04 75 1009.6
20260506153818 52 281 2.0 4.0 0.00 0.04 0.04 73 1009.3
20260506152703 52 292 2.0 7.0 0.00 0.04 0.04 73 1009.6
20260506151803 52 54 1.0 4.0 0.00 0.04 0.04 73 1009.3
20260506150903 52 158 2.0 8.0 0.00 0.04 0.04 73 1009.3
20260506150004 51 272 1.0 7.0 0.00 0.04 0.04 74 1009.4
20260506145403 52 292 1.0 7.0 0.00 0.04 0.04 75 1009.4
20260506144504 52 252 2.0 4.0 0.00 0.04 0.04 74 1009.5
20260506143818 52 142 2.0 8.0 0.00 0.04 0.04 74 1009.5
20260506142921 52 128 2.0 6.0 0.00 0.04 0.04 72 1009.2
20260506141803 52 240 2.0 7.0 0.00 0.04 0.04 71 1009.3
20260506140903 52 167 2.0 7.0 0.00 0.04 0.04 71 1009.2
20260506140004 52 160 2.0 7.0 0.00 0.04 0.04 69 1009.2
20260506135619 53 135 2.0 7.0 0.00 0.04 0.04 69 1009.4
20260506134722 53 262 1.0 6.0 0.00 0.04 0.04 68 1009.2
20260506133603 53 300 3.0 9.0 0.00 0.04 0.04 67 1009.1
20260506132703 53 301 3.0 8.0 0.00 0.04 0.04 66 1009.3
20260506131803 53 306 3.0 8.0 0.00 0.04 0.04 66 1008.9
20260506130903 53 299 3.0 8.0 0.00 0.04 0.04 66 1008.9
20260506130003 53 297 3.0 9.0 0.00 0.04 0.04 65 1009.0
20260506125403 53 299 2.0 9.0 0.00 0.04 0.04 64 1008.8
20260506124503 53 260 2.0 8.0 0.00 0.04 0.04 63 1008.8
20260506123819 53 289 3.0 10.0 0.00 0.04 0.04 63 1008.8
20260506122922 54 281 2.0 6.0 0.00 0.04 0.04 62 1008.5
20260506121803 53 287 3.0 10.0 0.00 0.04 0.04 63 1008.6
20260506120904 53 307 3.0 9.0 0.00 0.04 0.04 62 1008.8
20260506120003 53 293 2.0 8.0 0.00 0.04 0.04 62 1008.9
20260506115403 53 286 3.0 9.0 0.00 0.04 0.04 63 1008.6
20260506114503 53 298 3.0 7.0 0.00 0.04 0.04 61 1008.5
20260506113604 53 278 2.0 8.0 0.00 0.04 0.04 62 1008.6
20260506112703 53 295 2.0 8.0 0.00 0.04 0.04 64 1008.6
20260506112020 53 303 2.0 7.0 0.00 0.04 0.04 64 1008.5
20260506111117 53 307 2.0 8.0 0.00 0.04 0.04 64 1008.4
20260506110219 53 297 2.0 7.0 0.00 0.04 0.04 65 1008.5
20260506105621 53 258 2.0 8.0 0.00 0.04 0.04 67 1008.5
20260506104718 53 297 2.0 8.0 0.00 0.04 0.04 66 1008.4
20260506103821 53 296 3.0 7.0 0.00 0.04 0.04 66 1008.6
20260506102918 53 283 2.0 6.0 0.00 0.04 0.04 65 1008.3
20260506102020 53 278 2.0 6.0 0.00 0.04 0.04 66 1008.3
20260506101118 53 228 1.0 7.0 0.00 0.04 0.04 65 1008.3
20260506100220 53 308 2.0 7.0 0.00 0.04 0.04 64 1008.3
20260506095404 52 300 1.0 4.0 0.00 0.04 0.04 67 1008.3
20260506094503 52 263 2.0 7.0 0.00 0.04 0.04 67 1008.1
20260506093603 52 197 2.0 7.0 0.00 0.04 0.04 66 1008.2
20260506092919 52 238 3.0 10.0 0.00 0.04 0.04 67 1007.9
20260506092021 52 242 3.0 10.0 0.00 0.04 0.04 69 1008.0
20260506091118 52 196 2.0 6.0 0.00 0.04 0.04 76 1008.0
20260506090003 51 143 2.0 7.0 0.00 0.04 0.04 78 1008.1
20260506085403 51 214 2.0 6.0 0.00 0.04 0.04 79 1007.8
20260506084720 51 283 2.0 9.0 0.00 0.04 0.04 77 1008.1
20260506083817 51 242 2.0 10.0 0.00 0.04 0.04 79 1007.7
20260506082919 51 202 2.0 7.0 0.00 0.04 0.04 80 1007.8
20260506082017 51 273 2.0 8.0 0.00 0.04 0.04 80 1007.5
20260506080903 51 293 2.0 7.0 0.00 0.04 0.04 81 1007.6
20260506080221 51 288 2.0 7.0 0.00 0.04 0.04 81 1007.7
20260506072920 50 304 2.0 6.0 0.00 0.04 0.04 84 1007.5
20260506072017 50 309 2.0 4.0 0.00 0.04 0.04 85 1007.3
20260506071120 50 305 2.0 7.0 0.00 0.04 0.04 85 1007.3
20260506062018 49 304 2.0 7.0 0.01 0.04 0.04 87 1007.3
20260506060904 49 308 2.0 6.0 0.01 0.04 0.04 88 1007.1
20260506050904 48 310 2.0 6.0 0.02 0.03 0.03 90 1007.3
20260506044717 48 305 2.0 3.0 0.01 0.02 0.02 91 1007.1
20260506043603 48 302 2.0 4.0 0.02 0.02 0.02 91 1007.2
20260506042703 47 303 2.0 4.0 0.01 0.01 0.01 91 1007.3
20260506042019 48 310 2.0 4.0 0.01 0.01 0.01 91 1007.2
20260506041122 48 303 2.0 4.0 0.01 0.01 0.01 91 1007.1
20260506040219 48 294 2.0 6.0 0.01 0.01 0.01 90 1007.2
20260506035403 48 299 2.0 6.0 0.01 0.01 0.01 91 1007.3
20260506034503 48 299 2.0 4.0 0.01 0.01 0.01 91 1007.4
20260506033603 48 296 2.0 8.0 0.00 0.00 0.00 90 1007.3
20260506032917 48 305 2.0 7.0 0.00 0.00 0.00 90 1007.2
20260506031803 48 291 2.0 6.0 0.00 0.00 0.00 90 1007.4
20260506030903 48 297 2.0 6.0 0.00 0.00 0.00 90 1007.3
20260506030003 48 309 2.0 6.0 0.00 0.00 0.00 90 1007.3
20260506025621 48 313 2.0 6.0 0.00 0.00 0.00 89 1007.4
20260506024503 48 310 2.0 7.0 0.00 0.00 0.00 89 1007.6
20260506023603 48 302 2.0 6.0 0.00 0.00 0.00 88 1007.7
20260506022918 48 296 3.0 8.0 0.00 0.00 0.00 88 1007.5
20260506022020 48 305 2.0 8.0 0.00 0.00 0.00 88 1007.4
20260506021118 48 298 2.0 6.0 0.00 0.00 0.00 87 1007.6
20260506020003 48 307 2.0 8.0 0.00 0.00 0.00 87 1007.7
20260506015403 48 307 3.0 8.0 0.00 0.00 0.00 87 1007.7
20260506014504 48 296 3.0 8.0 0.00 0.01 0.00 86 1007.6
20260506013821 48 295 3.0 9.0 0.00 0.01 0.00 86 1007.8
20260506012919 48 302 2.0 7.0 0.00 0.01 0.00 85 1007.8
20260506011804 49 300 3.0 7.0 0.00 0.02 0.00 85 1007.9
20260506010903 49 302 2.0 7.0 0.00 0.02 0.00 84 1007.9
20260506010008 49 287 2.0 7.0 0.00 0.03 0.00 83 1007.9
20260506005617 49 292 2.0 7.0 0.00 0.03 0.00 83 1007.9
20260506004720 49 286 2.0 7.0 0.00 0.03 0.00 83 1008.2
20260506003817 49 301 3.0 7.0 0.00 0.03 0.00 82 1008.1
20260506002919 49 298 2.0 4.0 0.00 0.03 0.00 82 1008.0
20260506002017 50 300 2.0 7.0 0.00 0.03 0.00 81 1008.1
20260506001119 50 298 2.0 7.0 0.00 0.03 0.00 82 1008.3
20260506000221 50 308 2.0 9.0 0.00 0.04 0.00 81 1008.2
20260505235403 50 309 2.0 7.0 0.00 0.04 0.00 81 1008.3
20260505234504 50 300 2.0 8.0 0.00 0.05 0.00 81 1008.4
20260505233603 50 304 2.0 7.0 0.00 0.05 0.00 81 1008.4
20260505232920 50 306 2.0 4.0 0.00 0.06 0.00 81 1008.4
20260505231803 50 287 2.0 7.0 0.00 0.08 0.00 80 1008.8
20260505230903 50 292 2.0 7.0 0.00 0.10 0.00 80 1008.7
20260505230003 50 285 2.0 7.0 0.00 0.11 0.00 80 1008.7
20260505225403 50 296 3.0 7.0 0.00 0.12 0.00 79 1008.5
20260505224721 50 303 3.0 7.0 0.00 0.16 0.00 79 1008.6
20260505223603 51 301 3.0 8.0 0.00 0.32 0.00 79 1008.9
20260505222708 51 309 2.0 7.0 0.00 0.35 0.00 79 1009.0
20260505221803 51 309 2.0 8.0 0.00 0.35 0.00 79 1008.7
20260505220904 51 296 2.0 8.0 0.00 0.35 0.00 79 1008.9
20260505220218 51 295 3.0 8.0 0.00 0.36 0.00 79 1009.0
20260505215619 51 300 3.0 8.0 0.00 0.36 0.36 79 1008.8
20260505214716 51 301 3.0 7.0 0.00 0.36 0.36 79 1009.0